Theta_e
297 293 291 295 298 299 299 298 297 301 306 306 306 307 313 315 317 314 314 315 316 316 320 320 320 322 322 319 316 316 316 316 316 316 314 312 310 309 308 307 309 309 310 311
294 291 296 299 299 299 299 297 297 301 306 306 305 304 312 313 315 316 315 315 316 318 320 320 320 321 322 319 317 315 313 313 314 314 314 312 310 310 307 307 307 309 308 309
292 294 298 297 297 297 298 296 298 297 302 307 304 301 308 315 316 317 317 318 318 319 318 316 316 319 321 319 319 317 314 314 314 313 311 308 308 307 306 305 304 305 306 308
294 298 296 295 295 297 294 300 300 299 301 295 304 292 301 308 310 313 315 317 318 319 318 317 317 318 321 321 322 320 318 316 316 314 310 307 304 303 304 303 304 303 306 306
293 294 294 294 295 298 296 301 299 299 299 300 299 295 299 307 305 309 314 316 318 319 318 318 318 319 321 324 322 322 319 317 315 313 311 309 304 303 303 303 302 303 303 304
296 300 298 296 299 299 300 298 298 299 297 291 296 295 295 301 306 308 313 316 318 319 318 319 320 320 319 322 323 322 319 317 315 313 313 308 304 302 302 302 301 301 302 303
294 295 298 300 295 298 298 296 288 286 287 288 297 294 297 303 307 310 311 315 318 319 318 317 316 316 317 319 321 320 318 316 315 314 312 308 306 305 304 303 302 301 301 302
288 286 295 298 295 293 294 295 290 282 284 288 296 291 295 306 308 311 313 315 318 318 318 317 316 316 316 318 319 319 318 315 315 313 311 310 307 305 304 304 303 303 303 304
289 289 297 298 298 297 294 290 297 293 294 289 293 296 302 305 306 308 310 313 315 317 317 316 316 316 315 316 319 319 317 315 314 313 311 309 308 306 305 306 307 306 305 305
294 288 296 297 298 297 295 298 290 292 286 284 290 292 294 300 303 306 308 310 313 316 317 317 316 315 314 315 318 319 318 314 314 313 310 308 308 308 308 308 306 306 305 305
295 293 292 296 292 291 293 292 294 295 293 286 285 290 304 302 305 306 308 309 312 315 316 317 316 314 314 314 315 316 316 313 313 312 310 307 307 308 308 307 306 306 306 305
297 293 288 291 296 297 296 294 295 289 288 292 294 293 307 307 308 308 308 309 311 316 316 316 316 314 313 312 313 313 314 313 312 311 309 307 307 307 306 306 306 306 305 306
295 292 285 288 293 295 293 295 295 296 297 291 289 292 306 305 306 307 307 308 310 312 316 315 315 313 312 311 312 312 312 311 311 310 308 307 306 305 305 305 305 305 305 305
299 293 289 285 289 293 290 292 294 295 290 291 292 295 300 302 303 306 308 309 310 311 314 314 314 312 312 312 311 311 311 311 310 309 307 305 305 305 305 305 304 305 305 304
296 289 291 292 293 293 292 291 293 292 294 291 294 294 300 303 304 305 307 308 309 310 312 313 313 312 311 311 311 311 310 310 309 307 306 305 305 305 305 304 304 304 304 304
293 288 291 286 292 292 290 293 293 293 294 294 296 296 303 305 306 306 306 307 308 310 311 312 313 312 311 311 310 311 309 309 308 306 305 305 305 304 304 304 304 304 304 303
288 287 287 284 290 290 286 292 293 294 296 296 292 298 303 302 304 305 306 308 308 310 311 312 312 312 312 311 311 310 309 309 307 306 305 304 304 303 303 304 303 303 303 303
286 285 286 285 288 279 291 297 296 295 296 297 298 299 302 304 305 307 309 309 309 311 311 312 313 313 312 312 311 311 309 307 306 305 304 304 303 303 303 303 302 302 303 302
290 286 283 282 283 288 291 293 293 293 293 299 298 300 301 304 305 305 310 311 311 312 312 313 314 314 313 312 311 310 308 307 306 304 304 304 304 303 302 301 301 302 302 302
289 289 284 284 280 279 290 296 300 299 288 300 300 301 301 302 296 302 310 311 312 313 314 313 314 314 313 312 312 310 308 306 305 304 304 305 304 303 302 302 302 303 303 303
283 284 281 281 282 286 294 297 301 287 290 301 303 304 304 302 304 310 311 311 313 313 313 314 314 312 313 313 311 309 308 306 306 305 305 305 304 303 303 303 303 302 302 302
282 282 282 283 281 280 296 298 291 296 301 302 304 304 304 307 308 309 312 311 312 312 312 313 312 312 313 313 311 309 308 308 307 305 304 304 304 304 303 303 302 302 301 301
280 283 280 283 285 288 291 290 295 297 299 300 302 303 304 305 309 308 308 309 311 311 311 312 312 312 313 312 311 309 310 309 307 305 304 304 304 304 304 302 301 301 301 299
285 288 284 284 285 287 289 291 292 294 296 300 302 303 305 305 310 308 309 311 311 311 311 311 311 311 311 312 311 311 311 310 307 304 303 304 303 302 303 303 302 300 299 298
285 287 284 285 286 287 288 289 290 292 297 301 302 302 303 304 308 310 308 310 310 311 311 311 310 310 310 312 311 311 311 310 307 305 304 303 303 302 302 302 301 301 301 300
288 284 282 280 287 285 287 290 291 291 296 301 300 300 302 304 305 310 308 309 310 310 311 310 311 310 311 311 311 311 311 310 307 305 303 303 303 302 302 301 295 289 297 293
Wind_Speed
17 15 20 23 22 20 20 21 22 23 19 21 17 17 17 11 17 15 17 17 16 16 16 17 15 14 13 11 9 9 8 5 3 3 3 6 4 5 6 5 7 7 7 7
14 21 21 21 21 20 24 23 22 18 20 19 19 20 24 23 20 20 20 17 17 18 18 18 16 15 14 13 12 11 8 7 5 2 1 4 4 5 5 5 7 6 7 8
20 16 22 20 21 23 23 22 19 22 20 22 17 20 25 31 25 24 20 19 19 20 20 18 18 17 15 15 14 11 10 9 7 6 6 5 5 4 3 5 7 6 7 7
21 22 24 24 23 22 20 22 18 17 16 12 15 12 22 21 16 18 20 18 20 20 20 18 18 17 17 15 14 13 12 11 8 10 8 7 4 5 6 7 6 4 8 7
23 22 19 24 22 21 17 17 17 16 17 14 20 13 16 26 23 22 22 19 19 19 20 20 19 17 16 17 15 15 14 12 9 8 7 6 9 7 6 7 6 8 7 5
24 22 20 16 20 19 16 15 16 15 12 12 16 16 18 16 18 20 21 23 19 22 20 19 17 16 15 15 16 14 15 13 12 10 8 10 10 9 6 6 4 4 3 3
22 25 17 14 18 14 15 16 9 11 12 8 17 18 10 17 25 26 21 21 22 20 21 19 19 16 16 17 15 14 15 14 12 10 9 10 10 10 10 7 5 5 3 4
17 20 24 16 20 17 17 16 7 18 13 10 14 18 16 14 13 19 20 20 21 19 18 19 19 17 16 16 17 16 16 16 13 12 9 10 9 7 7 6 6 6 4 4
18 22 24 17 15 18 20 19 17 11 14 13 13 15 19 5 13 4 21 22 22 21 19 21 19 16 16 15 16 15 16 16 14 12 10 9 8 9 8 8 6 5 7 5
20 13 19 23 16 21 20 14 16 10 7 15 13 18 12 10 6 13 13 14 23 24 22 21 19 17 14 14 12 12 12 15 14 13 10 9 7 6 7 7 7 8 6 7
21 16 15 19 17 21 17 16 15 11 10 7 8 11 4 20 13 10 14 12 14 23 22 20 18 18 15 14 14 11 11 15 14 12 11 10 8 7 7 6 7 7 7 6
14 11 13 18 19 20 21 19 17 8 20 11 4 6 8 5 9 12 12 15 11 18 22 21 19 20 17 16 15 13 11 14 14 13 11 10 9 9 8 7 7 7 7 6
12 6 12 17 13 21 21 21 20 18 4 10 6 5 4 3 4 12 15 13 15 12 21 20 19 19 18 17 16 15 12 14 14 14 12 11 10 10 8 8 8 7 7 7
4 8 12 12 14 14 19 21 21 18 12 13 14 13 13 10 8 7 8 12 12 16 20 20 19 20 18 17 16 16 13 14 15 14 13 12 11 10 9 10 10 8 7 7
14 12 14 16 22 15 19 22 23 22 20 18 15 19 16 12 9 11 8 11 16 15 18 18 19 19 19 18 17 17 15 14 15 14 14 13 11 10 10 9 9 9 7 7
14 8 14 10 19 22 18 21 22 22 23 22 22 19 19 14 14 13 15 11 11 17 17 18 20 20 20 20 18 17 16 15 15 15 14 14 12 11 11 10 10 8 7 7
8 8 8 12 17 21 20 19 19 20 21 21 20 15 16 18 17 17 13 14 13 14 18 20 21 20 19 19 18 18 17 16 16 15 15 15 14 14 13 12 11 10 8 7
6 6 4 6 12 22 16 19 21 20 17 20 18 18 18 16 15 14 14 16 14 15 16 17 17 18 19 18 18 17 17 17 16 17 16 16 16 14 13 12 11 10 7 7
11 1 5 5 9 12 17 21 19 19 17 14 19 18 16 15 16 13 17 18 15 15 17 17 17 17 19 19 19 18 18 18 17 17 17 17 16 15 14 13 11 9 9 7
13 9 5 4 7 9 14 10 16 16 15 14 14 10 14 15 12 9 13 16 18 16 13 15 17 17 19 19 20 19 19 19 18 18 17 17 17 15 15 13 11 10 9 9
10 6 11 8 6 10 14 20 14 7 7 11 10 13 13 12 9 4 7 12 18 17 17 17 17 18 19 19 20 19 18 19 17 16 16 17 16 15 14 12 9 10 9 9
6 4 6 8 7 10 21 7 9 10 16 16 14 13 15 13 5 7 3 12 13 17 17 18 16 16 17 19 19 19 18 17 16 16 16 16 16 13 12 13 11 10 9 8
4 4 5 5 3 10 13 13 18 22 15 14 14 14 12 13 7 6 6 8 17 19 16 15 15 15 16 18 19 19 17 18 16 16 15 15 16 14 13 13 12 9 9 6
6 1 3 10 12 15 10 16 21 21 23 17 17 17 14 11 7 9 3 5 14 15 15 15 16 16 16 17 19 17 18 18 16 16 15 14 14 14 12 11 10 9 8 6
8 4 8 6 14 12 13 19 18 22 22 21 17 16 16 15 9 4 2 8 12 13 13 14 14 14 16 17 18 17 17 17 17 16 14 14 12 14 11 11 10 10 8 9
4 1 4 4 8 5 14 17 17 19 21 19 15 16 18 17 16 4 3 3 9 13 15 13 13 13 13 14 15 17 17 18 17 15 13 11 10 11 9 9 4 12 10 12
Wind_Direction
205 204 210 208 208 218 205 208 220 213 178 197 203 196 154 164 160 180 186 181 176 183 182 167 172 167 155 142 137 150 150 116 113 137 148 117 103 93 91 72 68 44 36 31
189 218 212 219 213 219 237 206 219 240 190 189 202 215 156 177 200 184 190 187 186 180 176 168 170 173 163 159 160 147 141 140 117 123 344 65 86 79 108 108 85 58 54 37
214 214 224 215 210 213 228 239 215 223 231 184 203 218 174 181 181 180 187 181 188 188 164 167 170 171 167 164 163 152 156 156 172 134 102 85 95 120 171 98 76 62 54 60
220 228 197 217 222 216 221 232 247 218 169 179 210 217 225 161 182 190 178 186 185 181 160 171 173 172 172 164 158 163 162 173 139 143 136 155 147 104 64 60 79 63 54 50
212 213 216 215 209 222 225 222 235 240 207 199 195 225 250 171 189 186 178 187 180 173 168 175 177 175 179 164 163 167 163 154 151 129 153 119 110 113 105 97 92 74 54 57
229 219 217 216 228 221 213 231 217 247 249 205 213 220 239 186 181 193 188 177 187 173 168 174 176 173 176 168 160 161 166 160 160 160 154 131 131 125 119 130 121 121 119 79
216 231 207 225 225 214 217 223 185 216 225 228 198 238 206 231 194 191 191 180 186 176 169 176 171 173 175 164 159 158 167 160 161 149 146 139 137 137 142 147 136 131 102 100
213 215 207 183 218 205 222 222 204 205 214 214 225 220 237 221 204 180 179 187 182 178 171 171 171 176 173 165 160 168 173 155 158 152 149 147 144 147 145 153 154 138 135 108
213 222 211 194 207 228 205 222 231 223 228 224 217 226 226 279 200 182 175 178 185 181 171 172 172 173 171 163 163 171 172 156 158 152 145 146 166 157 166 141 157 119 112 127
246 238 211 207 204 222 236 206 223 227 212 229 238 221 209 171 197 171 184 195 185 179 175 169 170 166 166 161 160 167 176 153 153 149 150 155 162 157 132 133 126 130 142 113
242 251 258 212 192 203 221 231 210 232 237 234 237 248 276 179 184 196 187 204 204 178 169 171 163 160 163 159 159 167 179 153 153 150 159 155 152 140 134 146 134 124 121 141
258 232 244 249 191 198 221 223 207 197 221 230 241 255 24 106 192 193 222 191 208 164 171 161 159 160 160 161 161 169 183 154 155 155 159 155 147 144 152 142 132 133 145 148
342 267 223 238 234 184 214 223 222 217 194 234 242 240 125 58 201 177 196 222 183 182 159 158 159 160 163 164 163 169 182 159 157 157 159 157 156 156 158 144 136 154 156 150
271 274 261 227 228 194 205 222 223 219 208 223 234 235 249 184 208 208 195 203 192 171 157 159 164 162 165 164 163 168 180 162 160 162 159 160 161 162 153 153 151 156 165 158
351 276 257 259 249 246 209 220 226 218 226 213 225 235 240 209 216 214 195 223 185 163 156 164 167 164 166 166 166 169 175 164 163 162 163 163 162 161 151 155 162 155 159 162
344 292 296 272 266 258 260 271 220 234 214 228 221 222 227 190 209 212 191 198 175 166 169 169 169 167 169 170 171 171 171 165 166 164 166 161 164 161 166 165 168 162 164 165
322 351 326 260 251 259 253 237 260 225 233 219 231 217 220 225 221 200 223 166 185 181 177 175 175 172 173 174 171 172 169 163 168 165 165 165 171 174 169 168 170 167 173 160
273 322 276 277 261 236 250 244 248 261 244 235 242 241 222 230 231 213 181 161 182 179 186 177 174 171 170 168 171 168 167 166 170 170 171 170 174 174 168 171 175 167 169 163
211 199 273 259 237 264 242 247 247 248 263 270 230 249 243 237 241 241 173 164 177 177 185 180 174 170 165 169 168 169 171 169 175 176 177 171 173 174 171 176 174 167 167 168
185 204 254 309 231 229 237 271 331 305 260 268 283 289 229 245 226 207 174 174 167 165 179 172 168 163 169 171 169 171 174 173 180 181 179 171 173 178 177 176 174 172 169 170
186 195 217 234 260 253 16 331 319 238 301 291 342 330 329 289 224 271 203 184 161 163 166 163 169 174 172 168 168 174 177 179 178 180 176 171 173 180 175 173 172 172 173 172
186 216 187 208 236 244 359 21 11 340 338 337 333 329 321 316 268 192 279 158 163 145 151 162 170 170 167 167 170 177 182 171 175 178 177 173 172 178 172 170 172 176 178 173
63 1 315 324 24 358 7 359 342 354 349 339 325 318 317 303 265 270 229 273 168 151 161 164 167 167 167 169 172 178 176 170 174 177 179 174 170 176 168 171 173 176 181 176
24 4 297 316 13 5 21 344 355 346 327 343 334 335 329 299 252 188 230 229 147 152 162 165 165 171 171 173 175 177 176 171 174 175 176 173 171 174 168 172 174 178 179 175
317 354 334 312 8 344 360 352 341 327 323 343 346 342 342 340 311 171 177 157 153 162 161 166 171 176 177 175 177 175 174 171 174 174 177 177 174 175 174 174 176 181 184 176
19 353 6 330 346 345 322 326 327 326 327 336 343 358 352 2 354 222 238 287 163 165 158 164 171 173 178 180 176 176 176 175 174 175 178 176 171 178 176 162 127 43 167 165